Regional Weather Roundup
Issued by NWS Lake Charles, LA

Home | Current Version | Previous Version | Text Only | Print | Product List | Glossary On
Versions: 1 2 3 4 5 6 7 8 9 10 11 12 13 14 15 16 17 18 19 20 21 22 23 24 25 26 27 28 29 30 31 32 33 34 35 36 37 38 39 40 41 42 43 44 45 46 47 48 49 50
161
ASUS44 KLCH 280510
RWRLCH
REGIONAL WEATHER ROUNDUP
NATIONAL WEATHER SERVICE LAKE CHARLES LA
1200 AM CDT WED SEP 28 2016

Note: "fair" indicates few or no clouds below 12,000 feet with no
significant weather and/or obstructions to visibility.


ACROSS SOUTHEAST TEXAS

CITY           SKY/WX    TMP DP  RH WIND       PRES   REMARKS
BEAUMONT       CLEAR     74  67  78 N7        29.98F
BEAUMONT CITY  FAIR      73  69  89 N5        30.00F
ORANGE         CLEAR     73  65  78 N3        30.01S
JASPER         CLEAR     69  64  86 CALM      30.03F
$$

ACROSS CENTRAL LOUISIANA

CITY           SKY/WX    TMP DP  RH WIND       PRES   REMARKS
LEESVILLE      CLEAR     69  61  76 VRB5      30.00S
FULLERTON      FAIR      69  62  78 CALM      29.98S
ALEXANDRIA INT CLOUDY    69  64  84 NW5       29.98S
ESLER FIELD    CLOUDY    68  66  93 CALM      29.99F
DERIDDER       FAIR      69  60  72 CALM      30.02S
OAKDALE        CLEAR     70  67  91 CALM      29.99S
OPELOUSAS      FAIR      71  66  86 CALM      29.98S
$$

ACROSS SOUTHWEST AND SOUTH CENTRAL LOUISIANA

CITY           SKY/WX    TMP DP  RH WIND       PRES   REMARKS
SULPHUR        CLEAR     74  66  78 N3        29.99S
LAKE CHARLES   PTCLDY    74  66  76 N5        29.98S
CHENNAULT INT  PTCLDY    72  67  84 CALM      29.98F
CAMERON PHI    CLEAR     75  72  88 N6        29.97S
DEQUINCY       FAIR      69  64  85 N3        30.00S
JENNINGS       FAIR      73  70  93 CALM      29.98F
LAFAYETTE      PTCLDY    75  66  73 NE3       29.97F
NEW IBERIA     CLEAR     74  67  78 N3        29.97F
ABBEVILLE      FAIR      71  70  98 CALM      29.98S
PATTERSON      PTCLDY    76  72  87 N5        29.97F
SALT POINT     NOT AVBL
$$

SELECTED SITES ACROSS THE REGION

CITY           SKY/WX    TMP DP  RH WIND       PRES   REMARKS
HOUSTON BUSH   PTCLDY    73  66  78 N5        30.01S
HOUSTON HOBBY  PTCLDY    76  66  71 NW5       30.00S
GALVESTON      CLEAR     78  72  81 N9        29.99S
COLLEGE STAT   CLEAR     69  63  81 N5        30.03S
CONROE         CLEAR     69  65  86 N3        30.02S
HUNTSVILLE     CLEAR     68  64  87 CALM      30.03S
LUFKIN         CLEAR     66  63  90 CALM      30.02S
SHREVEPORT     PTCLDY    65  62  90 CALM      30.01R
MONROE         CLEAR     66  62  87 CALM      30.00S
NATCHEZ MS     CLOUDY    70  63  78 CALM      29.98F
BATON ROUGE    MOCLDY    74  67  78 NW5       29.96F
N.O. INTL ARPT MOCLDY    80  74  81 W5        29.95F
SLIDELL        PTCLDY    76  73  91 N3        29.94F
$$

MARINE REPORTS

STATION/POSITION TIME  SKY/WX   TEMP    WIND        PRES    VSBY
                                AIR SEA DIR/SP/G
                 (UTC)          (F)     (DEG/KT/KT) (MB)    (MI)
BUOY 30 S HIGH I 0450            81 85  360/  8/ 12 1015.2F
WVE H/P(F/S)=  2/ 6

SEA RIM ST PARK  0400            74     350/  5/  5 1016.0F
PORT ARTHUR      0400               86  350/  6/  8 1015.6S
SABINE PASS N    0400            78 86   10/  6/  7 1016.7F
TEXAS POINT      NOT AVBL
CALCASIEU PASS   0400            79 85   10/  7/  8 1014.1F
LK CHARLES BEACH 0400            76 85              1015.8F
MARSH ISLAND     0400            82                   N/A
FRESH WATER LOCK 0400            77 86  320/  7/  9 1015.7R
AMERADA PASS     0400            78 85  330/  2/  5 1014.6S
$$




USA.gov is the U.S. government's official web portal to all federal, state and local government web resources and services.